[[{"header":{"parameterUnit":"m.s-1","parameterCategory":1,"la1":30.2991,"la2":30.254,"lo1":-89.0895,"lo2":-89.0444,"dy":0.0017,"dx":0.0017,"nx":28,"ny":28,"refTime":"2025-07-10T03:00:00:Z","depth":0,"parameterNumber":2,"parameterNumberName":"U-component_of_WINDS"},"data":[0,0,0,0,0,0,0,0,0,0,0,0,0,0,0,0,0,0,0,0,0,0,0,0,0,0,0,0,0,0,0,0,0,0,0,0,0,0,0,0,0,0,0,0,0,0,0,0,0,0,0,0,0,0,0,0,0,0,3.8781,3.8782,0,3.8873,3.8874,3.8876,3.8803,3.88,3.8797,3.8794,3.8886,3.8891,3.8896,0,0,0,0,0,0,0,0,0,0,0,0,0,3.8538,3.8543,3.8781,3.8782,3.8784,3.8873,3.8875,3.8876,3.8804,3.88,3.8796,3.8793,3.8884,3.889,3.8897,0,0,0,0,0,0,0,0,0,0,0,0,0,3.8638,3.8544,3.8781,3.8758,3.8757,3.8873,3.8875,3.8876,3.8805,3.88,3.8795,3.8791,3.8882,3.889,3.8898,3.9039,0,0,3.8922,3.8925,0,0,0,0,0,0,0,0,3.8633,3.8647,3.8761,3.876,3.8759,3.8822,3.8822,3.8931,3.8806,3.8787,3.8794,3.8789,3.8868,3.8877,3.8904,3.9044,3.9048,3.8923,3.8927,3.8931,3.8933,0,0,0,0,0,0,0,3.8626,3.8643,3.8817,3.8762,3.8762,3.8742,3.8751,3.8842,3.8852,3.8788,3.8783,3.8795,3.8867,3.8897,3.8906,3.9049,3.8922,3.8929,3.8934,3.8937,3.9305,3.931,0,0,0,0,0,0,3.8622,3.8638,3.8815,3.882,3.8683,3.875,3.8761,3.8807,3.8851,3.8853,3.8799,3.8791,3.8885,3.8897,3.8909,3.9074,3.8931,3.8938,3.8943,3.93,3.9306,3.9311,0,0,0,0,0,0,3.8617,3.8638,3.8811,3.8728,3.8748,3.876,3.8812,3.8811,3.8841,3.8859,3.886,3.8828,3.8882,3.8898,3.9007,3.9077,3.8942,3.8949,3.9294,3.9302,3.9309,3.9409,0,0,0,0,0,0,3.861,3.8637,3.8692,3.873,3.8753,3.8909,3.8816,3.8816,3.8855,3.8846,3.8887,3.8889,3.888,3.8995,3.9015,3.9085,3.8955,3.9288,3.9297,3.9306,3.9399,3.9419,3.9436,0,0,0,0,0,3.8602,3.8717,3.8695,3.8717,3.8822,3.8913,3.8926,3.8914,3.8861,3.8915,3.8927,3.8888,3.9067,3.9007,3.9028,3.9102,3.9283,3.9295,3.9306,3.9391,3.9415,3.9435,0,0,0,0,0,0,3.8687,3.8721,3.8698,3.8829,3.8869,3.8901,3.8969,3.894,3.8995,3.8984,3.8966,3.8976,3.909,3.9107,3.904,3.924,3.9166,3.9182,3.9224,3.9247,3.9265,3.9256,3.8962,0,0,0,0,0,3.8721,3.8793,3.8819,3.8932,3.8953,3.8958,3.8997,3.8984,3.9024,3.904,3.906,3.9099,3.9164,3.9207,3.9268,3.9402,3.9408,3.9464,3.9482,3.9497,3.951,3.9578,3.9602,3.9348,3.9348,3.9348,0,0,3.8792,3.882,3.8866,3.895,3.8979,3.9052,3.8973,3.9054,3.9107,3.9052,3.9156,3.9172,3.9214,3.9336,3.939,3.9354,3.9581,3.9511,3.9523,3.9527,3.9592,3.9616,3.9637,3.9356,3.9354,3.9353,0,0,3.8958,3.8988,3.9083,3.9114,3.916,3.9162,3.9185,3.9221,3.9229,3.9333,3.9293,3.9355,3.9468,3.9499,3.9529,3.9705,3.967,3.9726,3.9819,3.9886,3.9906,3.9924,3.9983,4.0005,3.9739,3.9739,3.974,0,3.904,3.9149,3.9136,3.922,3.9256,3.9211,3.9306,3.9336,3.9399,3.9424,3.9383,3.9521,3.9547,3.9673,3.9716,3.9743,3.9766,3.9719,3.9905,3.9922,3.9938,3.9994,4.0017,3.9746,3.9745,3.9744,3.9744,0,3.9246,3.9322,3.9394,3.9455,3.95,3.9589,3.9587,3.9634,3.9617,3.9623,3.9728,3.9757,3.9821,3.9851,3.9836,3.9974,3.995,3.9908,3.9832,3.9969,4.0021,4.0043,3.9755,3.9752,3.975,3.9749,0,0,3.9467,3.9519,3.9545,3.9571,3.9617,3.9675,3.9761,3.9824,3.9863,3.9908,3.9977,4.0073,4.0033,4.0068,4.0055,4.0115,4.0247,4.0065,4.0065,4.0094,4.0398,4.0427,4.0452,4.0226,4.023,4.0233,4.0393,0,3.9632,3.9782,3.9772,3.9912,3.9981,3.9938,4.0012,4.0047,4.0055,4.0113,4.0121,4.0188,4.0132,4.0152,4.0209,4.0219,4.0307,4.0208,4.0287,4.029,4.0274,4.048,4.0512,4.0661,4.0413,4.0417,4.0419,0,3.9844,3.9896,4.0043,4.0076,4.0104,4.0172,4.0227,4.0284,4.0322,4.0323,4.0361,4.0338,4.0422,4.0348,4.0461,4.0394,4.0426,4.0435,4.0441,4.0445,4.0361,4.0486,4.0709,4.073,4.0452,4.045,4.0447,0,3.9986,4.0093,4.0193,4.0217,4.026,4.0307,4.0327,4.036,4.0398,4.0447,4.047,4.0528,4.0559,4.0603,4.0595,4.0542,4.071,4.0636,4.0711,4.0711,4.0745,4.0743,4.0973,4.0772,4.0772,4.0771,4.0771,0,4.0169,4.026,4.0257,4.0319,4.0418,4.0405,4.0504,4.0518,4.0548,4.0609,4.0577,4.0636,4.0624,4.0681,4.0676,4.0769,4.0784,4.0785,4.0782,4.0786,4.0786,4.0804,4.0792,4.0777,4.0776,4.0775,4.0774,0,4.0343,4.0346,4.0452,4.0483,4.0493,4.0564,4.059,4.0647,4.0652,4.0731,4.0748,4.0755,4.0821,4.0819,4.0894,4.089,4.1003,4.099,4.099,4.0986,4.106,4.1052,4.1307,4.1338,4.1121,4.1123,4.1125,0,4.0459,4.0527,4.0565,4.0605,4.0627,4.0692,4.073,4.0719,4.0759,4.0807,4.0857,4.0921,4.097,4.1078,4.1088,4.1145,4.113,4.1216,4.1138,4.1139,4.1127,4.1122,4.1127,4.123,4.1233,4.1235,4.1236,0,4.0661,4.0659,4.0715,4.0772,4.0818,4.0862,4.0903,4.0936,4.093,4.0977,4.1044,4.1082,4.1158,4.122,4.1274,4.1292,4.1262,4.1261,4.128,4.1284,4.128,4.1279,4.1028,4.1254,4.1253,4.1251,4.125,4.1249,4.0807,4.0865,4.09,4.0963,4.0992,4.103,4.1084,4.1096,4.1152,4.1213,4.1203,4.1278,4.1311,4.138,4.1403,4.146,4.1429,4.1459,4.1465,4.1472,4.1478,4.1274,4.147,4.147,4.1469,4.1469,4.1468,0,4.1005,4.1025,4.1084,4.1141,4.119,4.1159,4.1201,4.1244,4.131,4.1344,4.1394,4.1469,4.1529,4.1544,4.16,4.1643,4.163,4.1657,4.1652,4.1656,4.1505,4.148,4.1666,4.1666,4.1666,4.1666,4.1666,4.1666,4.1114,4.1208,4.121,4.1317,4.1337,4.1409,4.1436,4.1469,4.1496,4.1582,4.1632,4.1642,4.1667,4.1725,4.1777,4.178,4.1801,4.1833,4.183,4.1687,4.1667,4.1648,4.1625,4.1839,4.1839,4.1976,4.1978,4.1979]},{"header":{"parameterUnit":"m.s-1","parameterCategory":1,"la1":30.2991,"la2":30.254,"lo1":-89.0895,"lo2":-89.0444,"dy":0.0017,"dx":0.0017,"nx":28,"ny":28,"refTime":"2025-07-10T03:00:00:Z","depth":0,"parameterNumber":3,"parameterNumberName":"V-component_of_WINDS"},"data":[0,0,0,0,0,0,0,0,0,0,0,0,0,0,0,0,0,0,0,0,0,0,0,0,0,0,0,0,0,0,0,0,0,0,0,0,0,0,0,0,0,0,0,0,0,0,0,0,0,0,0,0,0,0,0,0,0,0,1.7549,1.7549,0,1.7607,1.7608,1.7608,1.7561,1.7559,1.7557,1.7555,1.7622,1.7625,1.7629,0,0,0,0,0,0,0,0,0,0,0,0,0,1.74,1.7403,1.7549,1.7549,1.755,1.7607,1.7608,1.7609,1.7561,1.7559,1.7556,1.7554,1.762,1.7625,1.7629,0,0,0,0,0,0,0,0,0,0,0,0,0,1.7462,1.7404,1.7549,1.7533,1.7532,1.7607,1.7608,1.7609,1.7562,1.7559,1.7556,1.7553,1.7619,1.7624,1.763,1.7724,0,0,1.7646,1.7649,0,0,0,0,0,0,0,0,1.7459,1.7468,1.7535,1.7534,1.7534,1.7573,1.758,1.7648,1.7563,1.7551,1.7555,1.7551,1.7608,1.7615,1.7632,1.7727,1.773,1.7647,1.765,1.7653,1.7654,0,0,0,0,0,0,0,1.7455,1.7465,1.7572,1.7536,1.7535,1.7525,1.753,1.7592,1.7596,1.7552,1.7548,1.7556,1.7608,1.7627,1.7634,1.7731,1.7647,1.7652,1.7655,1.7657,1.7904,1.7907,0,0,0,0,0,0,1.7451,1.7462,1.757,1.7574,1.7488,1.753,1.7536,1.7564,1.7595,1.7597,1.7558,1.7553,1.7619,1.7627,1.7636,1.7747,1.7653,1.7658,1.7661,1.79,1.7904,1.7908,0,0,0,0,0,0,1.7448,1.7461,1.7568,1.7517,1.753,1.7536,1.7567,1.7567,1.7586,1.76,1.7601,1.7577,1.7617,1.7628,1.7701,1.7748,1.766,1.7665,1.7896,1.7901,1.7906,1.797,0,0,0,0,0,0,1.7444,1.746,1.7496,1.7518,1.7532,1.7632,1.757,1.757,1.7595,1.7589,1.7618,1.762,1.7616,1.7693,1.7707,1.7754,1.7669,1.7892,1.7899,1.7904,1.7964,1.7977,1.7988,0,0,0,0,0,1.7439,1.7514,1.7498,1.7511,1.7577,1.7634,1.7643,1.7634,1.7599,1.7635,1.7643,1.7619,1.7741,1.7701,1.7716,1.7766,1.7889,1.7897,1.7904,1.7959,1.7974,1.7988,0,0,0,0,0,0,1.7501,1.7517,1.7499,1.7583,1.7607,1.7626,1.7672,1.7651,1.7688,1.7681,1.7671,1.7678,1.7754,1.7768,1.7723,1.7857,1.781,1.782,1.7846,1.7861,1.7873,1.7868,1.7674,0,0,0,0,0,1.7524,1.7568,1.758,1.7653,1.7665,1.7666,1.7691,1.7682,1.7708,1.7718,1.7732,1.776,1.7803,1.7833,1.7875,1.7965,1.797,1.8007,1.8018,1.8028,1.8038,1.8084,1.81,1.7932,1.7932,1.7932,0,0,1.7573,1.7587,1.7616,1.7665,1.7683,1.7729,1.7676,1.7728,1.7762,1.7727,1.7796,1.7807,1.7837,1.7918,1.7955,1.7932,1.8085,1.8037,1.8045,1.8049,1.8094,1.811,1.8124,1.7937,1.7936,1.7935,0,0,1.7685,1.77,1.7761,1.7779,1.7805,1.7804,1.7819,1.784,1.7845,1.7913,1.7886,1.7928,1.8005,1.8026,1.8047,1.8163,1.8142,1.8177,1.8239,1.8285,1.8298,1.831,1.835,1.8365,1.8186,1.8186,1.8186,0,1.7743,1.7811,1.7796,1.7849,1.7871,1.7837,1.7899,1.7918,1.7957,1.7974,1.7946,1.8038,1.8057,1.8141,1.8169,1.8188,1.8204,1.8174,1.8297,1.8308,1.8319,1.8357,1.8373,1.819,1.819,1.8189,1.8189,0,1.788,1.7927,1.7973,1.8008,1.8035,1.8093,1.8088,1.8117,1.8105,1.8107,1.8176,1.8195,1.8239,1.8258,1.8248,1.8341,1.8326,1.8298,1.8249,1.8339,1.8375,1.839,1.8196,1.8194,1.8193,1.8192,0,0,1.8036,1.8058,1.8076,1.809,1.8114,1.8151,1.8206,1.8245,1.827,1.8298,1.8344,1.8407,1.838,1.8404,1.8395,1.8436,1.8524,1.8402,1.8403,1.8424,1.8626,1.8647,1.8664,1.8509,1.8512,1.8515,1.8624,0,1.8149,1.8242,1.8229,1.8319,1.8361,1.8328,1.8376,1.8396,1.8399,1.8437,1.8441,1.8485,1.8447,1.846,1.8498,1.8505,1.8565,1.8497,1.8553,1.8555,1.8547,1.8683,1.8706,1.8809,1.8638,1.864,1.8642,0,1.8293,1.8321,1.8415,1.8429,1.8447,1.849,1.8523,1.8559,1.8581,1.858,1.8605,1.8588,1.8643,1.8593,1.8669,1.8623,1.8645,1.8651,1.8655,1.8661,1.8604,1.8692,1.8841,1.8856,1.8664,1.8662,1.8661,0,1.8396,1.8458,1.8521,1.8535,1.8553,1.8584,1.8594,1.8612,1.8636,1.8665,1.868,1.8717,1.8738,1.8767,1.8761,1.8725,1.8838,1.8788,1.884,1.884,1.8866,1.8865,1.902,1.888,1.888,1.888,1.8879,0,1.8523,1.8582,1.8567,1.8606,1.867,1.8654,1.8719,1.8724,1.874,1.878,1.8755,1.8793,1.8782,1.882,1.8816,1.8879,1.8889,1.889,1.8888,1.8893,1.8892,1.8907,1.89,1.8884,1.8883,1.8882,1.8881,0,1.865,1.8642,1.8709,1.8719,1.8723,1.877,1.8779,1.8816,1.8815,1.8866,1.8877,1.8877,1.892,1.8916,1.8966,1.8963,1.904,1.903,1.9032,1.903,1.9082,1.9077,1.9253,1.9275,1.912,1.9122,1.9123,0,1.8732,1.8775,1.8789,1.8812,1.8822,1.8861,1.8884,1.8869,1.8894,1.892,1.8954,1.8993,1.9025,1.9095,1.9101,1.9138,1.9128,1.9187,1.9134,1.9136,1.9129,1.9126,1.913,1.9198,1.92,1.9201,1.9203,0,1.8877,1.887,1.8902,1.8932,1.8959,1.8983,1.9005,1.9026,1.9013,1.9042,1.9084,1.9108,1.9156,1.9196,1.923,1.9241,1.922,1.9219,1.9233,1.9238,1.9236,1.9237,1.9061,1.9215,1.9214,1.9213,1.9212,1.9212,1.8983,1.9019,1.9033,1.9069,1.9083,1.9102,1.9136,1.9138,1.9172,1.9208,1.9197,1.9245,1.9263,1.9307,1.9321,1.9358,1.9337,1.9358,1.9363,1.9368,1.9374,1.923,1.9365,1.9364,1.9364,1.9364,1.9364,0,1.9126,1.9132,1.9166,1.9194,1.9222,1.9196,1.9218,1.9244,1.9284,1.9302,1.9332,1.9379,1.9417,1.9424,1.946,1.9488,1.9479,1.9498,1.9496,1.9499,1.9391,1.9375,1.9505,1.9505,1.9505,1.9505,1.9504,1.9504,1.9204,1.9263,1.9257,1.9322,1.9328,1.9372,1.9386,1.9404,1.9418,1.947,1.95,1.9503,1.9516,1.9552,1.9586,1.9587,1.9601,1.9624,1.9621,1.9521,1.9507,1.9493,1.9478,1.9627,1.9628,1.9726,1.9727,1.9728]}]]